IUS DEB, 43364

Orbit data source: Space-Track

IUS DEB, 43364 is space debris originally from a launch on Fri, 23 Jul 1999 UTC launched from the Air Force Eastern Test Range (AFETR). Debris objects in space refer to the collection of defunct objects orbiting the Earth. Examples of debris include non-operational satellites, rocket bodies, and fragments generated from explosions, collisions, or faulty payload assembly.

Loading next visibility...
IUS DEB details
Identifier
43364, 1999-040M
Orbit
Active
Last TLE update2 months ago
Origin
Flag of USGSFC (US)
ManufacturerBoeing/Kent
MissionSpacecraft
Bus & MotorUnknown
MassUnknown
Launch date (UTC)
1999-07-23 (25 years ago)
Launch vehicleUnknown
Launch site
Air Force Eastern Test Range (AFETR)
Object type
Payload
Rocket body
Debris
Shape & HBRUnknown
Radar Cross SectionSmall (<0.1 m²)

Expand to show TLE details & history

TLE from 2 months ago
0 IUS DEB
1 43364U 99040M   24297.29629698  .00000459  00000-0  36979-2 0  9991
2 43364  28.0639 168.6849 3722530 205.8557 129.5923  7.01792216 96692
Epoch: 2024-10-23T07:06Z
Definitive object data (Epoch: 2024-10-23T07:06:40.059Z)
Latitude-0.00001°
Longitude29.82168°
Altitude8,549.5 km
Speed4.339 km/s
True Right ascension11h 14m 44s
True Declination0° 00' 00"
Sunlit
Object was in daylight at TLE epoch
Visualization TLE readout
Latitude-7.40793°
Longitude127.90553°
Altitude9,210.597 km
Speed4.069 km/s
Apparent Right ascension18h 43m 07s
Apparent Declination-18° 29' 55"
Sunlit
Object is in daylight
Visualization observer readout
Local Sidereal Time10:02:27
Azimuth78.37° E
Elevation-42.279°
Doppler factor1
Orbital elements
Apogee altitude9,439.84 km
Perigee altitude857.91 km
Semi-major axis11,527.012 km
Eccentricity0.372253
Inclination28.0639°
RAAN168.6849°
Arg. of periapsis205.8557°
True anomaly154.18108°
Mean anomaly129.5923°
Eccentric anomaly142.55889°
Mean motion1.75375 °/min
BSTAR0.0036979
Orbital period205.27 mins
Loading maneuver chart data...
Loading historical data...
Loading historical data...
Loading historical data...
Loading historical data...
Loading historical data...
Loading historical data...
Loading historical data...

IUS DEB Visibility forecast

Observer location: undefined°, undefined

Span
Click to sort rows by Start time (UTC) header in descending order
Start Az.
Max El. time (UTC)
Max El. Az.
Max El.
End time (UTC)
End Az.
67 mins2024-12-26 12:28:14.277Z256.571° W2024-12-26 12:43:14.277Z181.945° SSW40.792°2024-12-26 13:35:14.277Z115.39° SE
92 mins2024-12-26 16:10:14.277Z266.558° W2024-12-26 16:40:14.277Z211.763° SW33.186°2024-12-26 17:42:14.277Z156.297° SSE
22 mins2024-12-27 08:51:14.277Z202.61° SW2024-12-27 08:57:14.277Z143.727° SSE30.01°2024-12-27 09:13:14.277Z91.702° ESE
|